, LA

(GMT )
Salt Point

Weather History for KP92 - November, 2012

Change the Weather History Date:

Saturday, November 24, 2012

  Actual Average Record
Temperature  
Mean Temperature 54 °F -  
Max Temperature 63 °F 66 °F 77 °F (2010)
Min Temperature 46 °F 50 °F 1 °F (2017)
Degree Days  
Heating Degree Days 10    
Growing Degree Days 4 (Base 50)    
Moisture  
Dew Point 41 °F    
Average Humidity 58    
Maximum Humidity 81    
Minimum Humidity 33    
Precipitation  
Precipitation 0.00 in - - ()
Sea Level Pressure  
Sea Level Pressure 30.24 in    
Wind  
Wind Speed 4 mph (North)    
Max Wind Speed 7 mph    
Max Gust Speed -    
Averages and records for this station are not official NWS values.
T = Trace of Precipitation, MM = Missing Value Source: NWS Daily Summary

Daily Weather History Graph

Daily Weather History Graph

Search for Another Location

Airport or City:

Trip Planner

Search our weather history database for the weather conditions in past years. The results will help you decide how hot, cold, wet, or windy it might be!

Date:

Astronomy

Nov. 24, 2012 Rise Set
Actual Time 6:37 AM CST 5:06 PM CST
Civil Twilight 6:11 AM CST 5:32 PM CST
Nautical Twilight 5:42 AM CST 6:01 PM CST
Astronomical Twilight 5:13 AM CST 6:30 PM CST
Moon 2:40 PM CST (11/24) 3:07 AM CST (11/24)
Length of Visible Light 11h 20m
Length of Day
10h 29m
Waxing Gibbous, 87% of the Moon is Illuminated
Nov 24
Waxing Gibbous
Nov 28
Full
Dec 6
Last Quarter
Dec 13
New
Dec 19
First Quarter

Hourly Weather History & Observations

Time (CST) Temp. Dew Point Humidity Pressure Visibility Wind Dir Wind Speed Gust Speed Precip Events Conditions
12:53 AM 61.0 °F 55.0 °F 81% 30.25 in - North 5.8 mph - N/A   Unknown
1:53 AM 61.0 °F 52.0 °F 72% 30.24 in - North 5.8 mph - N/A   Unknown
2:53 AM 60.1 °F 48.9 °F 67% 30.23 in - NNE 3.5 mph - N/A   Unknown
3:53 AM 60.1 °F 46.0 °F 60% 30.24 in - Variable 4.6 mph - N/A   Unknown
4:53 AM 57.0 °F 43.0 °F 59% 30.25 in - North 3.5 mph - N/A   Unknown
5:53 AM 55.9 °F 43.0 °F 62% 30.27 in - Variable 3.5 mph - N/A   Unknown
6:53 AM 52.0 °F 43.0 °F 71% 30.28 in - North 4.6 mph - N/A   Unknown
7:53 AM 52.0 °F 42.1 °F 69% 30.31 in - North 4.6 mph - N/A   Unknown
8:53 AM 54.0 °F 39.0 °F 57% 30.31 in - Variable 6.9 mph - N/A   Unknown
9:53 AM 55.9 °F 37.9 °F 51% 30.31 in - Variable 4.6 mph - N/A   Unknown
10:53 AM 59.0 °F 37.9 °F 46% 30.30 in - Variable 3.5 mph - N/A   Unknown
11:53 AM 61.0 °F 39.0 °F 44% 30.27 in - Variable 3.5 mph - N/A   Unknown
12:53 PM 63.0 °F 37.9 °F 40% 30.24 in - Variable 3.5 mph - N/A   Unknown
1:53 PM 63.0 °F 36.0 °F 37% 30.21 in - North 5.8 mph - N/A   Unknown
2:53 PM 63.0 °F 33.1 °F 33% 30.20 in - Variable 4.6 mph - N/A   Unknown
3:53 PM 63.0 °F 35.1 °F 35% 30.19 in - Calm Calm - N/A   Unknown
4:53 PM 60.1 °F 37.9 °F 44% 30.19 in - Calm Calm - N/A   Unknown
5:53 PM 55.9 °F 39.9 °F 55% 30.20 in - Calm Calm - N/A   Unknown
6:53 PM 54.0 °F 37.9 °F 55% 30.21 in - Calm Calm - N/A   Unknown
7:53 PM 50.0 °F 41.0 °F 71% 30.22 in - Calm Calm - N/A   Unknown
8:53 PM 50.0 °F 39.9 °F 68% 30.22 in - Calm Calm - N/A   Unknown
9:53 PM 48.0 °F 41.0 °F 77% 30.21 in - Calm Calm - N/A   Unknown
10:53 PM 46.9 °F 39.0 °F 74% 30.20 in - Calm Calm - N/A   Unknown
11:53 PM 46.0 °F 39.0 °F 76% 30.19 in - Calm Calm - N/A   Unknown